This is the latest recevied weather packets stored in our database for station/object N2OCK. If no packets are shown the sender has not sent any weather packets the latest 10 day(s).
| Time | Temp. | Humidity | Pressure | Rain* | Wind** | Luminosity | Snow |
|---|---|---|---|---|---|---|---|
| 1777141424 | 6.11° C | 94% | 1018.2 hPa | 0 mm | - | 103 W/m² | - |
| 1777141120 | 5.56° C | 94% | 1018.2 hPa | 1.78 mm | - | 91 W/m² | - |
| 1777140817 | 6.11° C | 94% | 1018.1 hPa | 1.78 mm | - | 104 W/m² | - |
| 1777140513 | 6.11° C | 94% | 1018.1 hPa | 0 mm | - | 98 W/m² | - |
| 1777140211 | 6.11° C | 94% | 1017.9 hPa | 1.27 mm | - | 107 W/m² | - |
| 1777139908 | 6.11° C | 94% | 1018 hPa | 3.05 mm | - | 109 W/m² | - |
| 1777139606 | 6.11° C | 94% | 1018.1 hPa | 3.05 mm | - | 111 W/m² | - |
| 1777139306 | 6.11° C | 94% | 1017.9 hPa | 3.05 mm | - | 120 W/m² | - |
| 1777139002 | 6.11° C | 93% | 1018 hPa | 3.05 mm | - | 129 W/m² | - |
| 1777138699 | 6.11° C | 94% | 1018.1 hPa | 3.05 mm | - | 94 W/m² | - |
| 1777138394 | 6.11° C | 93% | 1018.3 hPa | 3.05 mm | - | 74 W/m² | - |
| 1777138091 | 6.11° C | 93% | 1018.7 hPa | 3.05 mm | - | 95 W/m² | - |
| 1777137787 | 6.11° C | 93% | 1018.8 hPa | 3.56 mm | - | 103 W/m² | - |
| 1777137483 | 6.67° C | 93% | 1018.7 hPa | 3.05 mm | - | 82 W/m² | - |
| 1777137180 | 6.67° C | 93% | 1019 hPa | 3.05 mm | - | 81 W/m² | - |
| 1777136877 | 6.67° C | 93% | 1018.9 hPa | 3.05 mm | - | 87 W/m² | - |
| 1777136573 | 6.11° C | 93% | 1018.7 hPa | 3.05 mm | - | 86 W/m² | - |
| 1777136271 | 6.11° C | 92% | 1018.6 hPa | 3.05 mm | - | 82 W/m² | - |
| 1777135969 | 6.11° C | 92% | 1018.8 hPa | 3.05 mm | - | 81 W/m² | - |
| 1777135663 | 6.67° C | 92% | 1018.7 hPa | 1.78 mm | - | 87 W/m² | - |
| 1777135360 | 6.11° C | 91% | 1019.1 hPa | 1.27 mm | - | 89 W/m² | - |
| 1777135057 | 6.11° C | 91% | 1018.8 hPa | 1.78 mm | - | 98 W/m² | - |
* Rain latest hour (hover to see other rain measurements)
** Current wind speed in m/s (hover to see current wind gust speed)